Погода в Санта-Элене

Гватемала     16°54′59″N   89°53′25″W
темп.,
°C
ветер,
м/с
пор.,
м/с
влажн.,
%
обл.,
%
осадки,
мм/ч
давл.,
гПа
погр.,
м
21 апреля, ср
ср2100:00+22с119789 4.9 101419
03:00+22ссз119983 0.5 101327
06:00+22вюв0198100 0.5 101448
09:00+28сз107396 0.1 1016835
12:00+33юз124836 0.4 10141595
15:00+32зсз134992 0.1 1011354
18:00+26зсз14765 0.4 101286
21:00+24вюв118145 0.1 101530
22 апреля, чт
чт2200:00+22юв12932 0.1 101568
03:00+22в11979 0.0 101416
06:00+21в119713 0.0 101540
09:00+29юв235678 0.0 10161372
12:00+35юв243316 0.0 10132744
15:00+36всв33241 0.0 10093132
18:00+30в3936100 0.0 1011568
21:00+24в296279 0.0 1015426
23 апреля, пт
пт2300:00+22вюв2782100 0.0 1015298
03:00+20вюв1590100 0.0 1013144
06:00+20вюв1591100 0.0 1014140
09:00+29юв365596 0.0 10141303
12:00+35юв2628100 0.0 10112545
15:00+37вюв352079 0.0 10072992
18:00+31в3103592 0.0 1008592
21:00+24в31168100 0.0 1011553
24 апреля, сб
сб2400:00+23вюв2880100 0.0 1011447
03:00+21в1590100 0.0 1010135
06:00+21вюв288947 0.0 1011297
09:00+30юв3554100 0.0 10111045
12:00+37ююв2333100 0.0 10081983
15:00+39ю232596 0.0 10052752
18:00+32ююв134054 0.0 100656
21:00+26всв396554 0.0 1010377
25 апреля, вс
вс2500:00+23в26786 0.0 1011257
03:00+21в118936 0.0 101015
06:00+21в119047 0.0 101230
09:00+31ю014668 0.0 1013852
12:00+38ссз12296 0.0 10112225
15:00+39с1322100 0.0 10073457
18:00+33всв4933100 0.0 1008876
21:00+26в311646 0.0 1012590